Torna al catalogo

PERSAT01

AttivoScienzaSSO
NORAD 66652·PAYLOAD·🇰🇷 South Korea
Questo nome del satellite non è ancora stato confermato da fonti ufficiali.

Lanciato Nov 26, 2025 da Naro Space Center

Loading…

Prossimi Passaggi (prossime 24 ore)

TLE

AggiornatoSource: Space-Track

Epoca: Sep 14, 2026, 02:45 UTC

1 66652U 25274C   26257.11465824  .00001828  00000-0  17937-3 0  9997
2 66652  97.7475 184.9242 0013133  65.6291 294.6298 14.93384358 43483

Traccia PERSAT01 in tempo reale con AllMySat

Download on the App Store